Location: Newark
(25.6108°S, 54.5803°W)
Time: 10:16:00
(UTC+00:00)

deb Explorer IX - Pass Details

Date: 30 October 2020
Orbit: 538 x 1104 km, 38.8° (Epoch: 23 November)

Event Time Altitude Azimuth Distance (km) Brightness Sun altitude
Rises 16:52:50 0° 337° (NNW) 3,811 ? 65.8°
Reaches altitude 10° 16:56:16 10° 351° (N) 2,792 ? 65.1°
Maximum altitude 17:01:18 22° 39° (NE) 1,924 ? 64.0°
Drops below altitude 10° 17:05:54 10° 89° (E) 2,525 ? 63.1°
Sets 17:08:49 0° 103° (ESE) 3,360 ? 62.4°
